Home   Weather   Chichester   Past weeks

Flag for United Kingdom Past Weather in Chichester, England, United Kingdom — Yesterday and Last 2 Weeks

Now
45 °F

Quite cool.


Feels Like: 38 °F
Forecast: 37 / 51 °F
Wind: 13 mph from North

Location: Thorney Island

Current Time: Apr 25, 2017 at 11:45:35 am

Latest Report: Apr 25, 2017 at 10:00 am


Visibility: 16 mi

Pressure: 29.96 "Hg

Humidity: 59%

Dew Point: 31 °F

Location of ChichesterLocation

Past Weather in Chichester — Graph

°F

Chichester Temperature Yesterday

Maximum temperature yesterday: 59 °F (at 1:00 pm)
Minimum temperature yesterday: 46 °F (at 6:00 am)
Average temperature yesterday: 52 °F

High & Low Weather Summary for the Past Weeks

 TemperatureHumidityPressure
High60 °F (Apr 16, 3:00 pm)99% (Apr 13, 7:00 am)30.64 "Hg (Apr 13, 7:00 am)
Low33 °F (Apr 25, 6:00 am)39% (Apr 18, 3:00 pm)29.89 "Hg (Apr 24, 8:00 pm)
Average50 °F74%30.26 "Hg
* Reported Apr 10 10:00 am — Apr 25 10:00 am, Chichester, Weather by CustomWeather, © 2017

Note: Actual official high and low records may vary slightly from our data, if they occured in-between our weather recording intervals... More about our weather records

Advertising

Chichester Weather History for the Previous 24 Hours

Scroll right to see more
 ConditionsComfort  
Time TempWeatherWind HumidityBarometerVisibility
10:00 am
Tue, Apr 25
45 °FQuite cool.13 mph59%29.96 "Hg16 mi
9:00 am42 °FQuite cool.13 mph62%29.96 "Hg16 mi
8:00 am39 °FChilly.9 mph64%29.96 "Hg4 mi
7:00 am35 °FChilly.3 mph71%29.95 "Hg22 mi
6:00 am33 °FChilly.3 mph73%29.95 "Hg22 mi
5:00 am35 °FChilly.7 mph67%29.94 "Hg25 mi
4:00 am36 °FChilly.7 mph66%29.94 "Hg31 mi
3:00 am38 °FChilly.12 mph59%29.95 "Hg22 mi
2:00 am40 °FQuite cool.13 mph51%29.95 "Hg31 mi
1:00 am42 °FQuite cool.15 mph47%29.94 "Hg31 mi
12:00 am46 °FCool.16 mph52%29.93 "Hg28 mi
11:00 pm
Mon, Apr 24
47 °FCool.10 mph61%29.93 "Hg31 mi
10:00 pm49 °FCool.10 mph64%29.93 "Hg28 mi
8:00 pm54 °FCool.9 mph66%29.89 "Hg31 mi
7:00 pm55 °FCool.12 mph63%29.90 "Hg25 mi
6:00 pm57 °FRefreshingly cool.16 mph59%29.90 "Hg28 mi
5:00 pm56 °FCool.13 mph72%29.92 "Hg28 mi
4:00 pm55 °FCool.17 mph68%29.93 "Hg28 mi
3:00 pm58 °FCool.13 mph61%29.96 "Hg25 mi
2:00 pm57 °FCool.13 mph63%29.98 "Hg22 mi
1:00 pm59 °FCool.8 mph62%30.01 "Hg19 mi
11:00 am56 °FCool.8 mph62%30.05 "Hg25 mi
Weather by CustomWeather, © 2017

See weather overviewHow to use our weather pages